Regional Weather Roundup
Issued by NWS Wakefield, VA

Home | Current Version | Previous Version | Text Only | Print | Product List | Glossary On
Versions: 1 2 3 4 5 6 7 8 9 10 11 12 13 14 15 16 17 18 19 20 21 22 23 24 25 26 27 28 29 30 31 32 33 34 35 36 37 38 39 40 41 42 43 44 45 46 47 48 49 50
000
ASUS41 KAKQ 310010
RWRAKQ

REGIONAL WEATHER ROUNDUP
NATIONAL WEATHER SERVICE WAKEFIELD VA
800 PM EDT SAT AUG 30 2014

Note: "fair" indicates few or no clouds below 12,000 feet with no
significant weather and/or obstructions to visibility. * = Denotes
station may not report precipitation (e.g., rain,snow,etc.),
thunder or fog.

VAZ042-051-052>054-056-310100-
NORTHERN VIRGINIA

CITY           SKY/WX    TMP DP  RH WIND       PRES   REMARKS
WASH NATIONAL  MOCLDY    81  69  67 SE7       30.12R
DULLES         MOCLDY    75  70  83 S5        30.12R
FORT BELVOIR   CLEAR     77  72  84 SE3       30.12S
QUANTICO       CLEAR     80  72  76 SE7       30.11S
FREDERICKSBRG* PTCLDY    81  74  80 CALM      30.10R
STAFFORD*      CLEAR     76  76 100 CALM      30.15R
WARRENTON      CLEAR     78  76  95 CALM      30.11S
CULPEPER*      PTCLDY   N/A N/A N/A CALM      30.11S
MANASSAS*      PTCLDY    75  73  94 CALM      30.11S
LEESBURG*      MOCLDY    79  73  83 S6        30.12S
WINCHESTER     CLOUDY    77  68  73 S5        30.11S
$$

VAZ048-049-060>072-079>083-310100-
CENTRAL AND SOUTH CENTRAL VIRGINIA...AND NORTH CENTRAL NORTH CAROLINA

CITY           SKY/WX    TMP DP  RH WIND       PRES   REMARKS
RICHMOND       PTCLDY    81  72  74 SE7       30.12R
CHESTERFIELD*  CLEAR     81  66  61 S3        30.14R
PETERSBURG*    CLEAR     79  72  79 CALM      30.13R
HANOVER        PTCLDY    82  72  71 SE5       30.13R
TAPPAHANNOCK*  CLEAR     78  68  71 SE5       30.14R
CHARLOTTSVILLE MOCLDY    79  73  82 S5        30.12R
ORANGE*        CLOUDY    79  72  78 CALM      30.13R
LOUISA*        CLEAR     75  73  94 CALM      30.11S
FARMVILLE*     CLEAR     81  72  74 S6        30.10S
SOUTH HILL*    PTCLDY    79  75  89 CALM      30.18S
ROANOKE RAPIDS CLEAR     79  72  78 CALM      30.13R
RALEIGH        PTCLDY    82  70  66 SE5       30.14R
$$

VAZ088>098-310100-
SOUTHEAST VIRGINIA

CITY           SKY/WX    TMP DP  RH WIND       PRES   REMARKS
NORFOLK        CLEAR     80  72  76 SE7       30.14S
VIRGINIA BEACH CLEAR     77  74  90 SE9       30.14S
NORFOLK NAVAL  PTCLDY    81  73  76 SE8       30.15R
WEST POINT*    PTCLDY    80  73  79 E5        30.15R
NEWPORT NEWS   CLOUDY    84  73  69 SE7       30.13S
LANGLEY AFB    CLEAR     80  74  82 SE8       30.13R
FORT EUSTIS    PTCLDY    81  72  73 SE7       30.12R
WILLIAMSBURG*  CLEAR     82  75  78 E3        30.14R
FRANKLIN*      CLEAR     81  73  78 SE5       30.13S
WAKEFIELD      CLEAR     82  73  74 CALM      30.13R
$$

VAZ020-022-025-037-045-310100-
WESTERN AND SOUTHWEST VIRGINIA

CITY           SKY/WX    TMP DP  RH WIND       PRES   REMARKS
STAUNTON*      PTCLDY    79  69  70 S8        30.16R
HOT SPRINGS VA CLOUDY    68  68 100 S9        30.30R FOG
LYNCHBURG      CLEAR     78  73  84 S6        30.15R
DANVILLE       CLEAR     81  68  64 SE3       30.13R
MARTINSVILLE   MOCLDY    77  75  93 CALM      30.15S
ROANOKE        PTCLDY    79  70  74 SE7       30.15R
BLACKSBURG     CLEAR     77  66  69 SE3       30.21R
DUBLIN*        CLEAR     76  65  69 S3        30.20R
MARION*        PTCLDY   N/A N/A N/A CALM      30.23R
HILLSVILLE*    PTCLDY    73  65  75 S3        30.22F
RICHLANDS*     MOCLDY    79  67  68 SE3       30.19S
WISE*          CLOUDY    77  63  61 CALM      30.19S
ABINGDON*      MOCLDY    80  67  62 S3        30.16R
$$

MDZ021>025-VAZ099-100-310100-
SOUTHERN MARYLAND AND THE DELMARVA PENINSULA

CITY           SKY/WX    TMP DP  RH WIND       PRES   REMARKS
PATUXENT RIVER CLEAR     77  70  79 SE7       30.13S
BAY BRIDGE APT   N/A     77  66  69 SE7       30.13S
LEONARDTOWN    CLEAR     77  68  73 SE7       30.15S
DOVER          CLEAR     74  68  81 SE8       30.13S
GEORGETOWN     CLEAR     74  65  73 SE15      30.16S
EASTON         NOT AVBL
CAMBRIDGE      CLEAR     77  66  69 SE8       30.14S
SALISBURY      CLEAR     74  64  71 SE5       30.16S
OCEAN CITY     CLEAR     75  67  76 S3        30.17S
WALLOPS ISLAND PTCLDY    77  69  76 S9        30.17S
ACCOMACK*      NOT AVBL
$$

NCZ012>017-030>032-310100-
EASTERN NORTH CAROLINA

CITY           SKY/WX    TMP DP  RH WIND       PRES   REMARKS
ELIZABETH CITY CLEAR     79  73  82 SE3       30.14S
AHOSKIE*       CLEAR     78  73  84 CALM      30.14S
EDENTON*       MOCLDY    77  73  87 E3        30.14R
CURRITUCK*     CLEAR     79  73  80 CALM      30.15S
KILL DEVIL HLS CLEAR     78  74  87 CALM      30.14S
MANTEO         CLEAR     78  74  86 SE5       30.15F
CAPE HATTERAS  NOT AVBL
GOLDSBORO      PTCLDY    81  77  88 SE6       30.11S
WASHINGTON     CLEAR     81  73  76 SE5       30.14S
GREENVILLE     CLEAR     81  72  74 SW5       30.15R
NEW BERN       CLEAR     81  72  74 S5        30.15R
WILMINGTON     CLEAR     79  71  76 S3        30.13S
$$

VAZ048-310100-
ELSEWHERE

CITY           SKY/WX    TMP DP  RH WIND       PRES   REMARKS
HARRISBURG PA  CLOUDY    76  66  71 SE8       30.11R
BALTIMORE      CLOUDY    77  68  73 SE3       30.12S
ANNAPOLIS      PTCLDY    78  69  73 S8        30.12S
ANDREWS AFB    CLEAR     74  70  86 E6        30.12S
WILMINGTON DE  CLOUDY    76  63  64 SE8       30.16R
PHILADELPHIA   CLOUDY    76  63  64 SE6       30.16R
WILDWOOD NJ*   CLOUDY    73  63  68 SE9       30.18S
ATLANTIC CITY  CLOUDY    73  63  70 S7        30.17S
HENDERSON NC   CLEAR     80  70  70 CALM      30.14R
GREENSBORO     CLEAR     83  69  62 SE9       30.13R
ROCKY MOUNT    CLEAR     80  72  76 CALM      30.13R
FAYETTEVILLE   CLEAR     82  72  71 S7        30.13R
CHARLOTTE      MOCLDY    84  63  49 S6        30.12R
$$

VAZ100-310100-
MARINE

STATION/POSITION TIME  TEMP    WIND        PRES    WAVE   SWELL
                       AIR SEA DIR/SP/G            HT/PER HT/PER
                 (UTC) (F)     (DEG/KT/KT) (MB)    (FT/S) (FT/S)
44066 TX TWR #4  0000   73 73  160/ 10/ 12 1022.1F   2/ 8   2/ 8
CAPE MAY NJ      0000   73 79  140/  8/ 11 1020.9F
LEWES DE         0000   74 76  170/  5/  7 1021.1R
15NM E FENWICK I 0000   74 74              1021.6F   2/ 8
OCEAN-CITY-INLET 0000   76 77  160/  7/ 10 1021.1S
WACHAPREAGUE VA  0000   77 82  170/  9/ 12 1021.2R
THOMAS POINT MD  0000   78 78  170/ 18/ 19 1020.7F
GOOSES REEF MD   0000   78     180/ 16/ 19 1020.5R
COVE POINT MD    0000   78     180/ 17/ 18 1020.0F
SOLOMONS ISLAND  0000      79                N/A
BISHOPS HEAD MD  0000   78 78  140/ 14/ 15 1020.2S
PINEY POINT MD   0000          170/ 13/ 15   N/A
POTOMAC MD       0000   79     170/ 14/ 16 1019.7S
CAMBRIDGE MD     0000   78 78  160/  4/  8 1020.2F
LEWISETTA VA     0000   78 80  170/  8/ 10 1020.0S
RAPPAHANNOCK LGT 0000          130/ 14/ 16 1021.2S
STINGRAY PT      0000   79     160/ 14/ 17   N/A
YORK RVR RNG VA  0000   78     150/ 17/ 19 1019.9R
YORKTOWN VA      0000   80 80  150/  8/ 10 1020.0S
JAMESTOWN VA     0000   81     160/  8/ 10   N/A
DOMINION TERM VA 0000   81     150/ 12/ 13 1020.3S
KIPTOPEKE VA     0000      83  150/ 12/ 16   N/A
CHES BAY BRIDGE  0000   79 78  120/  9/ 12 1020.3S
CAPE HENRY VA    0000   77     150/ 12/ 14 1019.6S
CHESAPEAKE LGHT  2300   76     140/ 16/ 17 1021.5F
WILLOUBY STN VA  0000   80     120/  9/ 11 1019.3R
S CRANEY ISL VA  0000          130/ 10/ 12 1020.2R
CAPE HENRY BUOY  0000      77                N/A     3/ 8
1ST LANDING BUOY 0000   78     150/ 14/ 17 1020.3F
CAPE CHARLES BUO 0000      79                N/A     3/ 7   2/ 7
OFFSHORE WE BUOY 0000      76                N/A     3/ 7   2/ 7
64NM E OF VA BCH 0000   78 78  120/  8/ 10 1021.2F   2/ 8   2/ 8
DUCK PIER NC     0000   79 79  140/ 11/ 12 1020.2R
44056 DUCK FRF   0000                        N/A     2/ 8
OREGON INLET NC  0000   78 79  130/  5/  7 1021.0F
HATTERAS NC      0000   81 82  160/  7/  9 1021.6F
DIAMOND SHLS NC  0000   80     100/ 10/ 12 1021.2F   3/ 8   3/ 8
CAPE LOOKOUT NC  2300   81     150/  7/  8 1020.8F
$$


USA.gov is the U.S. government's official web portal to all federal, state and local government web resources and services.